When you browse on this site, cookies collect data to enhance your experience and personalize the content and advertising you see.
Visit our Privacy Policy to learn more. By continuing to use the site, you agree to this use of cookies and data.
EN

Hourly Weather Gohad

Today, 27 September, Sunday

Time Temperature Precipitation Wind Pressure Humidity
00:00 +32°C° 0 mm 4 mps 739 mmHg 52%
01:00 +30°C° 0 mm 4 mps 739 mmHg 55%
02:00 +30°C° 0 mm 4 mps 738 mmHg 58%
03:00 +30°C° 0 mm 3 mps 739 mmHg 59%
04:00 +30°C° 0 mm 2 mps 739 mmHg 61%
05:00 +29°C° 0 mm 2 mps 739 mmHg 62%
06:00 +30°C° 0 mm 2 mps 740 mmHg 60%
07:00 +31°C° 0 mm 2 mps 740 mmHg 58%
08:00 +31°C° 0 mm 2 mps 741 mmHg 56%
09:00 +34°C° 0 mm 3 mps 741 mmHg 50%
10:00 +35°C° 0 mm 3 mps 741 mmHg 45%
11:00 +37°C° 0 mm 4 mps 741 mmHg 39%
12:00 +38°C° 0 mm 4 mps 740 mmHg 36%
13:00 +38°C° 0 mm 3 mps 740 mmHg 33%
14:00 +39°C° 0 mm 3 mps 739 mmHg 30%
15:00 +38°C° 0 mm 2 mps 739 mmHg 33%
16:00 +37°C° 0 mm 2 mps 739 mmHg 36%
17:00 +36°C° 0 mm 2 mps 738 mmHg 38%
18:00 +35°C° 0 mm 2 mps 739 mmHg 40%
19:00 +34°C° 0 mm 2 mps 739 mmHg 41%
20:00 +32°C° 0 mm 2 mps 740 mmHg 42%
21:00 +32°C° 0 mm 2 mps 740 mmHg 43%
22:00 +31°C° 0 mm 2 mps 740 mmHg 45%
23:00 +31°C° 0 mm 2 mps 740 mmHg 46%

Tomorrow, 28 September, Monday

Time Temperature Precipitation Wind Pressure Humidity
00:00 +31°C° 0 mm 2 mps 740 mmHg 49%
01:00 +30°C° 0 mm 2 mps 740 mmHg 53%
02:00 +30°C° 0 mm 2 mps 740 mmHg 56%
03:00 +29°C° 0 mm 2 mps 740 mmHg 58%
04:00 +29°C° 0 mm 2 mps 740 mmHg 60%
05:00 +29°C° 0 mm 2 mps 740 mmHg 62%
06:00 +30°C° 0 mm 3 mps 741 mmHg 60%
07:00 +31°C° 0 mm 3 mps 741 mmHg 57%
08:00 +33°C° 0 mm 4 mps 742 mmHg 55%
09:00 +35°C° 0 mm 4 mps 742 mmHg 48%
10:00 +37°C° 0 mm 4 mps 742 mmHg 42%
11:00 +38°C° 0 mm 4 mps 741 mmHg 35%
12:00 +39°C° 0 mm 3 mps 741 mmHg 31%
13:00 +40°C° 0 mm 3 mps 740 mmHg 27%
14:00 +42°C° 0 mm 3 mps 739 mmHg 23%
15:00 +40°C° 0 mm 3 mps 739 mmHg 25%
16:00 +38°C° 0 mm 2 mps 739 mmHg 28%
17:00 +37°C° 0 mm 2 mps 738 mmHg 31%
18:00 +36°C° 0 mm 2 mps 739 mmHg 35%
19:00 +34°C° 0 mm 3 mps 739 mmHg 39%
20:00 +33°C° 0 mm 3 mps 740 mmHg 44%
21:00 +31°C° 0 mm 3 mps 740 mmHg 46%
22:00 +31°C° 0 mm 2 mps 740 mmHg 48%
23:00 +30°C° 0 mm 2 mps 740 mmHg 50%

Day after tomorrow, 29 September, Tuesday

Time Temperature Precipitation Wind Pressure Humidity
00:00 +30°C° 0 mm 3 mps 740 mmHg 52%
01:00 +29°C° 0 mm 3 mps 740 mmHg 54%
02:00 +29°C° 0 mm 3 mps 739 mmHg 55%
03:00 +29°C° 0 mm 3 mps 739 mmHg 57%
04:00 +28°C° 0 mm 3 mps 739 mmHg 59%
05:00 +28°C° 0 mm 3 mps 739 mmHg 61%
06:00 +29°C° 0 mm 4 mps 740 mmHg 57%
07:00 +32°C° 0 mm 4 mps 740 mmHg 52%
08:00 +33°C° 0 mm 5 mps 741 mmHg 48%
09:00 +35°C° 0 mm 5 mps 741 mmHg 41%
10:00 +37°C° 0 mm 5 mps 741 mmHg 34%
11:00 +40°C° 0 mm 4 mps 740 mmHg 27%
12:00 +41°C° 0 mm 4 mps 740 mmHg 24%
13:00 +42°C° 0 mm 4 mps 739 mmHg 21%
14:00 +42°C° 0 mm 4 mps 738 mmHg 18%
15:00 +40°C° 0 mm 3 mps 738 mmHg 21%
16:00 +39°C° 0 mm 3 mps 738 mmHg 24%
17:00 +37°C° 0 mm 2 mps 737 mmHg 27%
18:00 +36°C° 0 mm 2 mps 738 mmHg 28%
19:00 +34°C° 0 mm 1 mps 738 mmHg 29%
20:00 +33°C° 0 mm 1 mps 739 mmHg 29%
21:00 +32°C° 0 mm 1 mps 739 mmHg 31%
22:00 +31°C° 0 mm 1 mps 739 mmHg 32%
23:00 +31°C° 0 mm 1 mps 739 mmHg 34%

30 September, Wednesday

Time Temperature Precipitation Wind Pressure Humidity
00:00 +30°C° 0 mm 1 mps 738 mmHg 35%
01:00 +30°C° 0 mm 2 mps 738 mmHg 36%
02:00 +29°C° 0 mm 2 mps 738 mmHg 37%
03:00 +29°C° 0 mm 2 mps 738 mmHg 38%
04:00 +29°C° 0 mm 2 mps 739 mmHg 40%
05:00 +28°C° 0 mm 3 mps 739 mmHg 41%
06:00 +30°C° 0 mm 3 mps 739 mmHg 40%
07:00 +31°C° 0 mm 3 mps 740 mmHg 39%
08:00 +33°C° 0 mm 4 mps 740 mmHg 38%
09:00 +35°C° 0 mm 4 mps 740 mmHg 34%
10:00 +37°C° 0 mm 4 mps 740 mmHg 29%
11:00 +40°C° 0 mm 5 mps 740 mmHg 25%
12:00 +41°C° 0 mm 5 mps 739 mmHg 23%
13:00 +41°C° 0 mm 5 mps 739 mmHg 21%
14:00 +42°C° 0 mm 5 mps 738 mmHg 19%
15:00 +41°C° 0 mm 4 mps 738 mmHg 22%
16:00 +38°C° 0 mm 3 mps 738 mmHg 25%
17:00 +37°C° 0 mm 2 mps 738 mmHg 29%
18:00 +36°C° 0 mm 2 mps 738 mmHg 30%
19:00 +34°C° 0 mm 1 mps 738 mmHg 32%
20:00 +32°C° 0 mm 1 mps 739 mmHg 33%
21:00 +32°C° 0 mm 1 mps 739 mmHg 34%
22:00 +32°C° 0 mm 1 mps 739 mmHg 34%
23:00 +31°C° 0 mm 1 mps 739 mmHg 35%

1 October, Thursday

Time Temperature Precipitation Wind Pressure Humidity
00:00 +31°C° 0 mm 2 mps 738 mmHg 36%
01:00 +30°C° 0 mm 2 mps 738 mmHg 36%
02:00 +30°C° 0 mm 3 mps 738 mmHg 37%
03:00 +29°C° 0 mm 3 mps 738 mmHg 38%
04:00 +29°C° 0 mm 3 mps 738 mmHg 38%
05:00 +29°C° 0 mm 3 mps 738 mmHg 39%
06:00 +30°C° 0 mm 3 mps 739 mmHg 37%
07:00 +32°C° 0 mm 4 mps 739 mmHg 36%
08:00 +33°C° 0 mm 4 mps 740 mmHg 35%
09:00 +35°C° 0 mm 4 mps 740 mmHg 31%
10:00 +37°C° 0 mm 5 mps 740 mmHg 28%
11:00 +40°C° 0 mm 5 mps 740 mmHg 25%
12:00 +41°C° 0 mm 5 mps 739 mmHg 23%
13:00 +41°C° 0 mm 5 mps 738 mmHg 21%
14:00 +42°C° 0 mm 4 mps 738 mmHg 19%
15:00 +41°C° 0 mm 4 mps 738 mmHg 22%
16:00 +39°C° 0 mm 3 mps 737 mmHg 25%
17:00 +37°C° 0 mm 2 mps 737 mmHg 28%
18:00 +36°C° 0 mm 2 mps 737 mmHg 29%
19:00 +35°C° 0 mm 2 mps 738 mmHg 30%
20:00 +34°C° 0 mm 2 mps 738 mmHg 31%
21:00 +32°C° 0 mm 2 mps 738 mmHg 33%
22:00 +32°C° 0 mm 2 mps 738 mmHg 35%
23:00 +31°C° 0 mm 1 mps 738 mmHg 36%

2 October, Friday

Time Temperature Precipitation Wind Pressure Humidity
00:00 +30°C° 0 mm 2 mps 738 mmHg 37%
01:00 +30°C° 0 mm 2 mps 738 mmHg 38%
02:00 +30°C° 0 mm 2 mps 738 mmHg 39%
03:00 +29°C° 0 mm 2 mps 738 mmHg 41%
04:00 +29°C° 0 mm 2 mps 738 mmHg 42%
05:00 +28°C° 0 mm 3 mps 738 mmHg 43%
06:00 +30°C° 0 mm 3 mps 739 mmHg 42%
07:00 +32°C° 0 mm 4 mps 739 mmHg 41%
08:00 +34°C° 0 mm 5 mps 740 mmHg 40%
09:00 +36°C° 0 mm 5 mps 740 mmHg 35%
10:00 +39°C° 0 mm 5 mps 740 mmHg 30%
11:00 +41°C° 0 mm 5 mps 740 mmHg 25%
12:00 +42°C° 0 mm 5 mps 739 mmHg 23%
13:00 +42°C° 0 mm 4 mps 738 mmHg 21%
14:00 +43°C° 0 mm 4 mps 738 mmHg 19%
15:00 +40°C° 0 mm 3 mps 738 mmHg 22%
16:00 +39°C° 0 mm 3 mps 737 mmHg 25%
17:00 +38°C° 0 mm 2 mps 737 mmHg 28%
18:00 +36°C° 0 mm 2 mps 738 mmHg 29%
19:00 +35°C° 0 mm 2 mps 738 mmHg 31%
20:00 +34°C° 0 mm 2 mps 738 mmHg 33%
21:00 +32°C° 0 mm 2 mps 738 mmHg 33%
22:00 +32°C° 0 mm 2 mps 738 mmHg 33%
23:00 +31°C° 0 mm 2 mps 739 mmHg 34%
Show more